This demonstration page uses our WeatherBlox Daily Observations layout. Learn more.

Left ArrowRight Arrow

Hourly Observations for February 6, 2016

Temp ( °F °C ) Dew Point ( °F °C ) Humidity (%) Winds ( mph kmh ) Pressure ( in mb ) Visibility ( mi km ) Precip ( " mm )
12:15 am 00:15 Clear 22 -5.6 19 -7.1 89 89 W 7 11 30.42 1030 10 16 N/A
12:35 am 00:35 Clear 19 -7 17 -8.5 89 89 W 6 9 30.42 1030 10 16 N/A
12:55 am 00:55 Clear 22 -5.6 19 -7 90 90 WNW 8 13 30.42 1030 10 16 N/A
1:15 am 01:15 Clear 19 -7.2 16 -8.8 88 88 W 7 11 30.42 1030 10 16 N/A
1:35 am 01:35 Clear 21 -6.3 18 -7.6 91 91 W 7 11 30.42 1030 10 16 N/A
1:55 am 01:55 Clear 19 -7.1 17 -8.5 90 90 W 6 9 30.42 1030 10 16 N/A
2:15 am 02:15 Clear 18 -7.6 16 -9 90 90 WSW 3 6 30.45 1031 10 16 N/A
2:35 am 02:35 Clear 18 -7.6 16 -8.8 91 91 WSW 3 6 30.45 1031 10 16 N/A
2:55 am 02:55 Clear 19 -7.1 17 -8.2 92 92 W 6 9 30.42 1030 10 16 N/A
3:15 am 03:15 Clear 21 -6.3 19 -7.5 91 91 W 3 6 30.42 1030 10 16 N/A
3:35 am 03:35 Clear 21 -6.3 18 -7.6 91 91 N N/A 30.42 1030 10 16 N/A
3:55 am 03:55 Clear 20 -6.7 18 -7.9 91 91 N N/A 30.39 1029 10 16 N/A
4:15 am 04:15 Clear 19 -7.5 16 -8.8 91 91 N N/A 30.39 1029 10 16 N/A
4:35 am 04:35 Clear 18 -7.7 17 -8.6 93 93 N N/A 30.42 1030 10 16 N/A
4:55 am 04:55 Clear 20 -6.8 18 -7.9 92 92 WSW 5 7 30.39 1029 10 16 N/A
5:15 am 05:15 Clear 20 -6.4 18 -7.8 90 90 SW 6 9 30.39 1029 10 16 N/A
5:35 am 05:35 Clear 19 -7.4 16 -8.9 89 89 WSW 7 11 30.39 1029 10 16 N/A
5:55 am 05:55 Clear 18 -7.6 16 -9.1 89 89 W 7 11 30.42 1030 10 16 N/A
6:15 am 06:15 Clear 19 -7.5 15 -9.3 87 87 W 10 17 30.39 1029 10 16 N/A
6:35 am 06:35 Clear 19 -7.5 14 -9.9 83 83 W 10 17 30.39 1029 10 16 N/A
6:55 am 06:55 Clear 18 -7.6 13 -10.3 81 81 W 10 17 30.42 1030 10 16 N/A
7:15 am 07:15 Clear 18 -7.7 13 -10.5 81 81 W 12 19 30.42 1030 10 16 N/A
7:35 am 07:35 Clear 18 -7.6 13 -10.5 80 80 W 10 17 30.42 1030 10 16 N/A
7:55 am 07:55 Sunny 20 -6.8 13 -10.4 76 76 W 9 15 30.36 1028 10 16 N/A
8:15 am 08:15 Sunny 21 -6.3 14 -10.2 74 74 WSW 7 11 30.36 1028 10 16 N/A
8:35 am 08:35 Sunny 19 -7.5 12 -11.1 76 76 SW 6 9 30.36 1028 10 16 N/A
8:55 am 08:55 Sunny 19 -7.3 13 -10.7 77 77 WSW 6 9 30.36 1028 10 16 N/A
9:15 am 09:15 Sunny 21 -6.3 13 -10.5 72 72 WSW 8 13 30.36 1028 10 16 N/A
9:35 am 09:35 Sunny 23 -5.2 14 -10 69 69 WSW 13 20 30.36 1028 10 16 N/A
9:55 am 09:55 Sunny 22 -5.3 14 -10 70 70 WSW 8 13 30.36 1028 10 16 N/A
10:15 am 10:15 Sunny 25 -4 15 -9.4 66 66 WSW 6 9 30.33 1027 10 16 N/A
10:35 am 10:35 Sunny 27 -2.9 17 -8.6 65 65 WSW 6 9 30.33 1027 10 16 N/A
10:55 am 10:55 Sunny 28 -2.5 17 -8.6 63 63 WSW 9 15 30.33 1027 10 16 N/A
11:15 am 11:15 Sunny 27 -2.8 17 -8.3 66 66 WSW 7 11 30.33 1027 10 16 N/A
11:35 am 11:35 Sunny 28 -2.3 17 -8.2 64 64 WSW 8 13 30.33 1027 10 16 N/A
11:55 am 11:55 Sunny 29 -1.9 18 -7.9 64 64 WSW 8 13 30.27 1025 10 16 N/A
12:15 pm 12:15 Sunny 30 -1.3 19 -7.5 63 63 WSW 9 15 30.27 1025 10 16 N/A
12:35 pm 12:35 Sunny 30 -1.2 19 -7 65 65 SW 10 17 30.24 1024 10 16 N/A
12:55 pm 12:55 Sunny 29 -1.5 19 -7 67 67 SW 12 19 30.24 1024 10 16 N/A
1:15 pm 13:15 Sunny 31 -0.7 20 -6.5 65 65 SW 10 17 30.24 1024 10 16 N/A
1:35 pm 13:35 Sunny 31 -0.5 21 -6.1 66 66 SW 14 22 30.24 1024 10 16 N/A
1:55 pm 13:55 Sunny 32 -0.2 21 -6 65 65 SW 14 22 30.24 1024 10 16 N/A
2:15 pm 14:15 Sunny 33 0.5 22 -5.3 65 65 SW 14 22 30.18 1022 10 16 N/A
2:35 pm 14:35 Sunny 33 0.3 21 -5.9 63 63 SW 13 20 30.21 1023 10 16 N/A
2:55 pm 14:55 Sunny 33 0.8 21 -5.9 61 61 SW 12 19 30.18 1022 10 16 N/A
3:15 pm 15:15 Sunny 35 1.5 23 -5 62 62 SW 12 19 30.18 1022 10 16 N/A
3:35 pm 15:35 Sunny 35 1.5 25 -4.1 67 67 SW 14 22 30.18 1022 10 16 N/A
3:55 pm 15:55 Sunny 34 1.2 25 -4 69 69 SW 12 19 30.15 1021 10 16 N/A
4:15 pm 16:15 Sunny 35 1.5 24 -4.3 66 66 SW 13 20 30.15 1021 10 16 N/A
4:35 pm 16:35 Sunny 35 1.5 25 -4 67 67 SW 14 22 30.15 1021 10 16 N/A
4:55 pm 16:55 Sunny 34 1.3 25 -3.7 70 70 SSW 12 19 30.15 1021 10 16 N/A
5:15 pm 17:15 Sunny 34 1.3 25 -3.7 70 70 SW 13 20 30.12 1020 10 16 N/A
5:35 pm 17:35 Sunny 34 1.1 26 -3.5 72 72 SSW 14 22 30.09 1019 10 16 N/A
5:55 pm 17:55 Sunny 34 1 26 -3.1 74 74 SW 10 17 30.12 1020 10 16 N/A
6:15 pm 18:15 Clear 34 1.1 27 -2.9 75 75 SW 16 26 30.09 1019 10 16 N/A
6:35 pm 18:35 Clear 34 1.1 27 -2.6 77 77 SW 14 22 30.09 1019 10 16 N/A
6:55 pm 18:55 Clear 35 1.5 28 -2.5 75 75 SW 13 20 30.09 1019 10 16 N/A
7:15 pm 19:15 Clear 34 1 28 -2.4 78 78 SW 12 19 30.09 1019 10 16 N/A
7:35 pm 19:35 Clear 34 1 28 -2.5 78 78 SW 10 17 30.09 1019 10 16 N/A
7:55 pm 19:55 Clear 35 1.5 27 -2.6 74 74 SW 9 15 30.09 1019 10 16 N/A
8:15 pm 20:15 Clear 33 0.8 27 -3 76 76 SW 9 15 30.09 1019 10 16 N/A
8:35 pm 20:35 Clear 34 0.9 27 -2.9 76 76 WSW 9 15 30.06 1018 10 16 N/A
8:55 pm 20:55 Clear 36 2.1 27 -2.8 70 70 WSW 13 20 30.06 1018 10 16 N/A
9:15 pm 21:15 Clear 36 2.2 27 -3 69 69 WSW 15 24 30.06 1018 10 16 N/A
9:35 pm 21:35 Clear 36 2.2 26 -3.1 68 68 WSW 15 24 30.06 1018 10 16 N/A
9:55 pm 21:55 Clear 35 1.8 26 -3.3 69 69 W 15 24 30.06 1018 10 16 N/A
10:15 pm 22:15 Clear 35 1.5 26 -3.5 70 70 W 16 26 30.06 1018 10 16 N/A
10:35 pm 22:35 Clear 34 1.1 26 -3.6 71 71 W 13 20 30.06 1018 10 16 N/A
10:55 pm 22:55 Clear 34 1.1 25 -3.8 70 70 W 14 22 30.09 1019 10 16 N/A
11:15 pm 23:15 Clear 35 1.9 25 -3.8 66 66 W 15 24 30.09 1019 10 16 N/A
11:35 pm 23:35 Clear 36 2.3 26 -3.5 66 66 WNW 14 22 30.09 1019 10 16 N/A
11:55 pm 23:55 Clear 37 2.6 26 -3.1 66 66 WNW 13 20 30.09 1019 10 16 N/A

Powered by AerisWeather